• In Uzbekistan
  • List of Countries
  • For 7 days
  • Water Temperature
  • Satellite Maps
  • Weather Map
  • Weather Widgets
  • user-avatar
    Login

    Hourly Weather Shusha

    Today, 28 June, Wednesday

    Time Temperature Precipitation Wind Pressure Humidity
    00:00 +16°C° 0 mm 1 mps 659 mmHg 85%
    01:00 +16°C° 0 mm 1 mps 658 mmHg 86%
    02:00 +16°C° 0 mm 1 mps 658 mmHg 87%
    03:00 +15°C° 0 mm 1 mps 658 mmHg 88%
    04:00 +18°C° 0 mm 1 mps 659 mmHg 85%
    05:00 +19°C° 0 mm 1 mps 659 mmHg 81%
    06:00 +19°C° 0 mm 0 mps 660 mmHg 78%
    07:00 +23°C° 0 mm 1 mps 660 mmHg 70%
    08:00 +24°C° 0 mm 1 mps 660 mmHg 61%
    09:00 +27°C° 0 mm 2 mps 661 mmHg 51%
    10:00 +28°C° 0 mm 2 mps 661 mmHg 48%
    11:00 +29°C° 0 mm 3 mps 660 mmHg 45%
    12:00 +30°C° 0 mm 3 mps 660 mmHg 42%
    13:00 +30°C° 0.1 mm 3 mps 660 mmHg 42%
    14:00 +30°C° 0.1 mm 3 mps 660 mmHg 41%
    15:00 +30°C° 0 mm 3 mps 659 mmHg 43%
    16:00 +29°C° 0.1 mm 3 mps 659 mmHg 46%
    17:00 +28°C° 0.1 mm 2 mps 659 mmHg 49%
    18:00 +28°C° 0.1 mm 2 mps 659 mmHg 52%
    19:00 +25°C° 0.1 mm 2 mps 658 mmHg 59%
    20:00 +23°C° 0.1 mm 1 mps 658 mmHg 66%
    21:00 +20°C° 0.1 mm 1 mps 658 mmHg 73%
    22:00 +20°C° 0 mm 1 mps 658 mmHg 74%
    23:00 +19°C° 0 mm 1 mps 658 mmHg 75%

    Tomorrow, 29 June, Thursday

    Time Temperature Precipitation Wind Pressure Humidity
    00:00 +19°C° 0 mm 1 mps 658 mmHg 75%
    01:00 +18°C° 0 mm 1 mps 658 mmHg 76%
    02:00 +18°C° 0 mm 1 mps 658 mmHg 77%
    03:00 +18°C° 0 mm 1 mps 658 mmHg 78%
    04:00 +19°C° 0 mm 1 mps 658 mmHg 74%
    05:00 +20°C° 0 mm 1 mps 659 mmHg 70%
    06:00 +21°C° 0 mm 1 mps 659 mmHg 66%
    07:00 +23°C° 0 mm 1 mps 659 mmHg 59%
    08:00 +25°C° 0 mm 1 mps 660 mmHg 52%
    09:00 +26°C° 0 mm 2 mps 660 mmHg 45%
    10:00 +27°C° 0.1 mm 2 mps 660 mmHg 42%
    11:00 +28°C° 0.1 mm 2 mps 660 mmHg 39%
    12:00 +29°C° 0.1 mm 3 mps 660 mmHg 36%
    13:00 +30°C° 0.1 mm 3 mps 660 mmHg 35%
    14:00 +30°C° 0.1 mm 3 mps 659 mmHg 34%
    15:00 +30°C° 0.1 mm 3 mps 659 mmHg 32%
    16:00 +30°C° 0.1 mm 2 mps 659 mmHg 34%
    17:00 +29°C° 0.1 mm 2 mps 659 mmHg 36%
    18:00 +28°C° 0.1 mm 2 mps 659 mmHg 38%
    19:00 +25°C° 0.1 mm 2 mps 658 mmHg 44%
    20:00 +22°C° 0.1 mm 1 mps 658 mmHg 51%
    21:00 +19°C° 0.1 mm 1 mps 657 mmHg 58%
    22:00 +19°C° 0 mm 1 mps 657 mmHg 57%
    23:00 +19°C° 0 mm 1 mps 657 mmHg 56%

    Day after tomorrow, 30 June, Friday

    Time Temperature Precipitation Wind Pressure Humidity
    00:00 +18°C° 0 mm 1 mps 658 mmHg 55%
    01:00 +18°C° 0 mm 1 mps 658 mmHg 54%
    02:00 +18°C° 0 mm 1 mps 657 mmHg 54%
    03:00 +16°C° 0 mm 1 mps 657 mmHg 54%
    04:00 +19°C° 0 mm 1 mps 658 mmHg 52%
    05:00 +20°C° 0 mm 1 mps 658 mmHg 51%
    06:00 +21°C° 0 mm 1 mps 659 mmHg 49%
    07:00 +23°C° 0 mm 2 mps 659 mmHg 41%
    08:00 +25°C° 0 mm 2 mps 660 mmHg 33%
    09:00 +27°C° 0 mm 2 mps 660 mmHg 25%
    10:00 +28°C° 0 mm 2 mps 660 mmHg 24%
    11:00 +29°C° 0 mm 2 mps 660 mmHg 23%
    12:00 +30°C° 0 mm 3 mps 660 mmHg 22%
    13:00 +30°C° 0 mm 3 mps 660 mmHg 22%
    14:00 +30°C° 0 mm 3 mps 660 mmHg 22%
    15:00 +30°C° 0 mm 3 mps 660 mmHg 22%
    16:00 +29°C° 0 mm 3 mps 660 mmHg 25%
    17:00 +29°C° 0 mm 3 mps 660 mmHg 27%
    18:00 +28°C° 0 mm 2 mps 660 mmHg 29%
    19:00 +25°C° 0 mm 2 mps 660 mmHg 33%
    20:00 +21°C° 0 mm 2 mps 659 mmHg 37%
    21:00 +18°C° 0 mm 2 mps 659 mmHg 41%
    22:00 +18°C° 0 mm 2 mps 659 mmHg 41%
    23:00 +18°C° 0 mm 2 mps 659 mmHg 41%

    1 July, Saturday

    Time Temperature Precipitation Wind Pressure Humidity
    00:00 +17°C° 0 mm 2 mps 659 mmHg 41%
    01:00 +17°C° 0 mm 2 mps 659 mmHg 41%
    02:00 +17°C° 0 mm 2 mps 659 mmHg 41%
    03:00 +16°C° 0 mm 2 mps 659 mmHg 41%
    04:00 +17°C° 0 mm 2 mps 660 mmHg 40%
    05:00 +18°C° 0 mm 2 mps 660 mmHg 39%
    06:00 +18°C° 0 mm 2 mps 661 mmHg 38%
    07:00 +21°C° 0 mm 2 mps 662 mmHg 33%
    08:00 +24°C° 0 mm 2 mps 662 mmHg 29%
    09:00 +27°C° 0 mm 1 mps 663 mmHg 24%
    10:00 +28°C° 0 mm 2 mps 663 mmHg 23%
    11:00 +29°C° 0 mm 2 mps 663 mmHg 22%
    12:00 +30°C° 0 mm 3 mps 663 mmHg 22%
    13:00 +30°C° 0 mm 3 mps 663 mmHg 22%
    14:00 +30°C° 0 mm 3 mps 662 mmHg 22%
    15:00 +31°C° 0 mm 3 mps 662 mmHg 22%
    16:00 +30°C° 0 mm 3 mps 662 mmHg 25%
    17:00 +29°C° 0 mm 3 mps 662 mmHg 27%
    18:00 +28°C° 0 mm 3 mps 662 mmHg 30%
    19:00 +26°C° 0 mm 2 mps 661 mmHg 34%
    20:00 +23°C° 0 mm 2 mps 661 mmHg 39%
    21:00 +19°C° 0 mm 2 mps 661 mmHg 43%
    22:00 +19°C° 0 mm 2 mps 661 mmHg 43%
    23:00 +18°C° 0 mm 2 mps 661 mmHg 43%

    2 July, Sunday

    Time Temperature Precipitation Wind Pressure Humidity
    00:00 +18°C° 0 mm 2 mps 661 mmHg 43%
    01:00 +17°C° 0 mm 2 mps 660 mmHg 42%
    02:00 +17°C° 0 mm 2 mps 660 mmHg 42%
    03:00 +17°C° 0 mm 2 mps 660 mmHg 41%
    04:00 +17°C° 0 mm 2 mps 660 mmHg 40%
    05:00 +18°C° 0 mm 2 mps 661 mmHg 39%
    06:00 +19°C° 0 mm 2 mps 661 mmHg 39%
    07:00 +23°C° 0 mm 2 mps 661 mmHg 34%
    08:00 +25°C° 0 mm 1 mps 662 mmHg 30%
    09:00 +28°C° 0 mm 1 mps 662 mmHg 25%
    10:00 +29°C° 0 mm 2 mps 662 mmHg 24%
    11:00 +30°C° 0 mm 2 mps 662 mmHg 23%
    12:00 +31°C° 0 mm 3 mps 662 mmHg 22%
    13:00 +31°C° 0 mm 3 mps 661 mmHg 22%
    14:00 +33°C° 0 mm 3 mps 661 mmHg 22%
    15:00 +33°C° 0 mm 3 mps 661 mmHg 22%
    16:00 +31°C° 0 mm 3 mps 660 mmHg 25%
    17:00 +31°C° 0 mm 2 mps 660 mmHg 27%
    18:00 +30°C° 0 mm 2 mps 660 mmHg 30%
    19:00 +27°C° 0 mm 2 mps 660 mmHg 34%
    20:00 +24°C° 0 mm 2 mps 659 mmHg 37%
    21:00 +21°C° 0 mm 2 mps 659 mmHg 40%
    22:00 +20°C° 0 mm 2 mps 659 mmHg 41%
    23:00 +20°C° 0 mm 2 mps 658 mmHg 41%

    3 July, Monday

    Time Temperature Precipitation Wind Pressure Humidity
    00:00 +19°C° 0 mm 2 mps 658 mmHg 42%
    01:00 +19°C° 0 mm 2 mps 658 mmHg 43%
    02:00 +18°C° 0 mm 2 mps 658 mmHg 43%
    03:00 +18°C° 0 mm 2 mps 657 mmHg 44%
    04:00 +19°C° 0 mm 2 mps 658 mmHg 44%
    05:00 +20°C° 0 mm 2 mps 658 mmHg 44%
    06:00 +22°C° 0 mm 1 mps 658 mmHg 43%
    07:00 +25°C° 0 mm 2 mps 659 mmHg 38%
    08:00 +27°C° 0 mm 2 mps 659 mmHg 32%
    09:00 +29°C° 0 mm 2 mps 660 mmHg 27%
    10:00 +31°C° 0 mm 2 mps 660 mmHg 25%
    11:00 +32°C° 0 mm 2 mps 659 mmHg 24%
    12:00 +34°C° 0 mm 2 mps 659 mmHg 22%
    13:00 +34°C° 0 mm 2 mps 659 mmHg 22%
    14:00 +35°C° 0 mm 2 mps 659 mmHg 22%
    15:00 +35°C° 0 mm 2 mps 659 mmHg 21%
    16:00 +34°C° 0.1 mm 2 mps 658 mmHg 24%
    17:00 +32°C° 0.1 mm 2 mps 658 mmHg 27%
    18:00 +31°C° 0.1 mm 1 mps 658 mmHg 30%
    19:00 +28°C° 0.1 mm 1 mps 658 mmHg 34%
    20:00 +25°C° 0.1 mm 2 mps 657 mmHg 39%
    21:00 +23°C° 0.1 mm 2 mps 657 mmHg 44%
    22:00 +21°C° 0.1 mm 2 mps 657 mmHg 44%
    23:00 +21°C° 0.1 mm 2 mps 656 mmHg 45%
    Show more